Location: Buckenweiler
(49.0667°N, 10.2500°E)
Time: 17:58:37
(UTC+00:00)

YAOGAN 1 - Pass Details

Date: 18 January 2026
Orbit: 605 x 607 km, 97.8° (Epoch: 18 February)

Event Time Altitude Azimuth Distance (km) Brightness Sun altitude
Rises 06:09:59 0° 20° (NNE) 2,875 6.0 -9.0°
Reaches altitude 10° 06:12:18 10° 29° (NNE) 1,966 5.2 -8.7°
Maximum altitude 06:16:16 37° 97° (E) 952 4.3 -8.1°
Drops below altitude 10° 06:20:13 10° 165° (SSE) 1,949 5.7 -7.5°
Sets 06:22:30 0° 174° (S) 2,847 6.4 -7.1°
